HS5GDX-4 Weather Reports


Display with metric or nautical units.
time (UTC)temp
F
wind
direction
speed
MPH
gust
MPH
rain 1hr
in
rain 24hr
in
rain mn
in
humidity
%
barometer
mb
20260504080305 105 0 0.0 0.0 0.00 0.00 0.00 22 964.0
20260504050001 104 0 0.0 0.0 0.00 0.00 0.00 26 967.0
20260504045953 104 0 0.0 0.0 0.00 0.00 0.00 26 967.0
20260504044425 103 0 0.0 0.0 0.00 0.00 0.00 26 968.0
20260504042855 104 0 0.0 0.0 0.00 0.00 0.00 26 968.0
20260504041326 102 0 0.0 0.0 0.00 0.00 0.00 27 968.0
20260504035758 102 0 0.0 0.0 0.00 0.00 0.00 29 968.0
20260504034228 101 0 0.0 0.0 0.00 0.00 0.00 29 968.0
20260504032700 100 0 0.0 0.0 0.00 0.00 0.00 30 968.0
20260504031131 99 0 0.0 0.0 0.00 0.00 0.00 31 968.0
20260504025601 99 0 0.0 0.0 0.00 0.00 0.00 31 969.0
20260504024031 98 0 0.0 0.0 0.00 0.00 0.00 32 969.0
20260504022502 97 0 0.0 0.0 0.00 0.00 0.00 33 969.0
20260504020932 97 0 0.0 0.0 0.00 0.00 0.00 33 969.0
20260504015402 96 0 0.0 0.0 0.00 0.00 0.00 34 969.0
20260504013832 95 0 0.0 0.0 0.00 0.00 0.00 35 969.0
20260504012304 95 0 0.0 0.0 0.00 0.00 0.00 36 968.0
20260504010734 95 0 0.0 0.0 0.00 0.00 0.00 36 968.0
20260504005205 94 0 0.0 0.0 0.00 0.00 0.00 37 968.0
20260504003635 93 0 0.0 0.0 0.00 0.00 0.00 38 968.0
20260504002104 94 0 0.0 0.0 0.00 0.00 0.00 37 968.0
20260504000536 94 0 0.0 0.0 0.00 0.00 0.00 37 967.0
20260503235005 93 0 0.0 0.0 0.00 0.00 0.00 38 967.0
20260503233443 0 0 0.0 0.0 0.00 0.00 0.00
20260503233434 93 0 0.0 0.0 0.00 0.00 0.00 38 967.0
20260503231907 92 0 0.0 0.0 0.00 0.00 0.00 39 967.0
20260503230337 94 0 0.0 0.0 0.00 0.00 0.00 37 967.0
20260503224808 91 0 0.0 0.0 0.00 0.00 0.00 40 967.0
20260503223240 93 0 0.0 0.0 0.00 0.00 0.00 38 967.0